1487217600.08,11073,12.31,74700.0,-5.09,-34.89,-35.07,0,*5F
1487217601.34,11074,12.31,74702.0,-5.11,-34.65,-35.01,0,*55
1487217602.6,11075,12.31,74702.3,-5.11,-34.83,-35.01,0,*5C
1487217603.84,11076,12.31,74702.5,-5.09,-34.95,-35.29,0,*5B
1487217605.07,11077,12.31,74700.3,-5.11,-35.17,-35.47,0,*50
1487217606.33,11078,12.31,74700.8,-5.11,-35.13,-35.35,0,*5E
1487217607.53,11079,12.31,74700.3,-5.09,-34.89,-35.13,0,*50
1487217608.77,11080,12.31,74702.5,-5.11,-34.77,-35.01,0,*5D
1487217609.99,11081,12.31,74696.5,-5.09,-34.59,-34.77,0,*59
1487217611.25,11082,12.31,74700.3,-5.11,-34.95,-35.29,0,*59
1487217612.51,11083,12.31,74700.3,-5.11,-35.13,-35.35,0,*5A
1487217613.75,11084,12.31,74700.5,-5.11,-35.01,-35.29,0,*53
1487217615.01,11085,12.31,74702.8,-5.11,-34.65,-35.01,0,*5B
1487217616.28,11086,12.31,74702.3,-5.09,-34.53,-34.95,0,*58
1487217617.53,11087,12.31,74698.3,-5.11,-34.59,-34.83,0,*5D
1487217618.77,11088,12.31,74698.0,-5.09,-34.53,-34.89,0,*5B
1487217620.01,11089,12.31,74702.0,-5.09,-34.77,-35.07,0,*5B
1487217621.24,11090,12.31,74700.3,-5.11,-35.01,-35.17,0,*5B
1487217622.5,11091,12.31,74702.8,-5.11,-34.65,-34.77,0,*5E
1487217623.78,11092,12.31,74702.5,-5.11,-34.19,-34.35,0,*50
1487217625.02,11093,12.31,74702.0,-5.09,-34.77,-34.95,0,*5A
1487217626.28,11094,12.31,74698.3,-5.09,-34.65,-34.95,0,*5E
1487217627.52,11095,12.31,74700.0,-5.09,-34.77,-35.23,0,*50
1487217628.77,11096,12.31,74702.8,-5.11,-34.83,-35.17,0,*56
1487217630.01,11097,12.31,74702.0,-5.09,-34.59,-34.95,0,*52
1487217631.28,11098,12.31,74700.3,-5.11,-34.65,-35.01,0,*57
1487217632.52,11099,12.31,74702.5,-5.09,-34.95,-35.13,0,*53
1487217633.75,11100,12.31,74700.3,-5.09,-35.13,-35.41,0,*5A
1487217635.01,11101,12.31,74704.8,-5.11,-34.95,-35.01,0,*59
1487217636.27,11102,12.31,74702.5,-5.11,-34.83,-35.13,0,*5E
1487217637.53,11103,12.31,74702.5,-5.11,-34.83,-35.13,0,*5F
1487217638.77,11104,12.31,74702.0,-5.11,-34.77,-35.13,0,*53
1487217640.0,11105,12.31,74702.5,-5.09,-34.89,-34.95,0,*55
1487217641.26,11106,12.31,74700.8,-5.11,-34.95,-35.17,0,*59
1487217642.5,11107,12.31,74702.5,-5.11,-35.01,-35.29,0,*59
1487217643.74,11108,12.31,74700.5,-5.11,-35.13,-35.29,0,*55
1487217644.95,11109,12.31,74702.8,-5.09,-34.77,-35.13,0,*57
1487217646.22,11110,12.31,74700.3,-5.11,-34.59,-34.95,0,*55
1487217647.48,11111,12.31,74700.8,-5.11,-34.59,-34.95,0,*54
1487217648.74,11112,12.31,74700.3,-5.11,-34.83,-35.01,0,*5C
1487217650.0,11113,12.31,74700.3,-5.11,-34.83,-35.13,0,*5E
1487217651.26,11114,12.31,74700.3,-5.11,-35.01,-35.35,0,*56
1487217652.49,11115,12.31,74702.0,-5.11,-35.17,-35.47,0,*55
1487217653.75,11116,12.31,74702.8,-5.11,-34.83,-35.13,0,*5B
1487217654.99,11117,12.31,74700.8,-5.11,-34.77,-35.13,0,*51
1487217656.27,11118,12.31,74704.5,-5.11,-34.65,-34.83,0,*55
1487217657.53,11119,12.31,74702.3,-5.11,-34.95,-35.17,0,*57
1487217658.79,11120,12.31,74702.8,-5.11,-34.65,-35.01,0,*55
1487217660.06,11121,12.31,74700.8,-5.11,-34.83,-35.13,0,*5F
1487217661.29,11122,12.31,74700.0,-5.09,-34.89,-34.95,0,*50
1487217662.55,11123,12.31,74700.8,-5.11,-34.95,-35.13,0,*5A
1487217663.81,11124,12.31,74702.5,-5.11,-35.01,-35.35,0,*55
1487217665.07,11125,12.31,74704.0,-5.11,-34.95,-35.17,0,*58
1487217666.31,11126,12.31,74700.3,-5.11,-34.77,-35.01,0,*50
1487217667.57,11127,12.31,74700.3,-5.13,-34.65,-34.95,0,*5C
1487217668.81,11128,12.31,74702.3,-5.09,-34.77,-35.07,0,*51
1487217670.07,11129,12.31,74702.0,-5.11,-34.53,-34.77,0,*59
1487217671.34,11130,12.31,74702.3,-5.11,-34.65,-35.01,0,*54
1487217672.57,11131,12.31,74696.8,-5.09,-34.77,-35.07,0,*59
1487217673.8,11132,12.31,74702.5,-5.11,-35.13,-35.17,0,*51
1487217675.06,11133,12.31,74700.3,-5.11,-34.95,-35.29,0,*52
1487217676.3,11134,12.31,74700.5,-5.11,-35.01,-35.29,0,*59
1487217677.56,11135,12.31,74702.8,-5.11,-35.13,-35.35,0,*56
1487217678.77,11136,12.31,74700.5,-5.13,-35.13,-35.29,0,*5A
1487217680.01,11137,12.31,74702.0,-5.13,-34.95,-35.13,0,*5D
1487217681.24,11138,12.31,74702.8,-5.13,-34.95,-35.17,0,*56
1487217682.48,11139,12.31,74700.5,-5.13,-34.59,-34.83,0,*5B
1487217683.74,11140,12.31,74704.5,-5.11,-34.59,-34.95,0,*50
1487217685.0,11141,12.25,74698.8,-5.11,-34.53,-34.77,0,*57
1487217686.27,11142,12.31,74702.3,-5.11,-34.59,-34.95,0,*52
1487217687.51,11143,12.31,74702.0,-5.13,-34.83,-35.01,0,*5A
1487217688.72,11144,12.31,74700.5,-5.13,-35.01,-35.17,0,*51
1487217689.95,11145,12.31,74700.0,-5.11,-35.13,-35.29,0,*5C
1487217691.18,11146,12.31,74700.8,-5.13,-34.95,-35.17,0,*5F
1487217692.42,11147,12.31,74702.3,-5.11,-34.77,-35.13,0,*54
1487217693.68,11148,12.31,74698.0,-5.11,-34.41,-34.65,0,*5E
1487217694.94,11149,12.31,74700.0,-5.11,-34.59,-34.83,0,*5E
1487217696.22,11150,12.31,74704.3,-5.11,-34.53,-34.83,0,*5C
1487217697.45,11151,12.31,74702.0,-5.09,-34.89,-35.23,0,*58
1487217698.68,11152,12.31,74700.3,-5.09,-35.13,-35.35,0,*5E
1487217699.93,11153,12.31,74706.0,-5.11,-35.17,-35.35,0,*52
1487217701.15,11154,12.31,74700.5,-5.13,-34.77,-35.01,0,*57
1487217702.41,11155,12.31,74702.0,-5.11,-34.83,-35.01,0,*5F
1487217703.67,11156,12.31,74702.5,-5.11,-34.95,-35.13,0,*58
1487217704.89,11157,12.31,74702.8,-5.13,-34.77,-35.01,0,*54
1487217706.1,11158,12.31,74700.3,-5.13,-35.01,-35.29,0,*51
1487217707.31,11159,12.31,74702.8,-5.13,-35.01,-35.17,0,*5D
1487217708.55,11160,12.31,74704.0,-5.13,-34.65,-35.13,0,*50
1487217709.8,11161,12.31,74702.3,-5.13,-34.95,-35.29,0,*57
1487217711.01,11162,12.31,74702.3,-5.13,-35.29,-35.47,0,*5A
1487217712.24,11163,12.31,74702.5,-5.13,-35.17,-35.35,0,*53
1487217713.45,11164,12.31,74698.8,-5.13,-35.01,-35.17,0,*53
1487217714.68,11165,12.31,74698.8,-5.13,-35.17,-35.35,0,*55
1487217715.91,11166,12.31,74700.8,-5.13,-34.95,-35.17,0,*5D
1487217717.13,11167,12.31,74702.8,-5.13,-35.01,-35.29,0,*5D
1487217718.39,11168,12.31,74700.3,-5.17,-34.83,-35.07,0,*51
1487217719.6,11169,12.31,74702.0,-5.13,-34.59,-34.89,0,*54
1487217720.81,11170,12.31,74702.8,-5.13,-34.59,-34.71,0,*5B
1487217722.05,11171,12.31,74702.8,-5.13,-34.25,-34.53,0,*51
1487217723.29,11172,12.31,74702.3,-5.13,-34.65,-35.01,0,*50
1487217724.51,11173,12.31,74700.5,-5.13,-35.01,-35.29,0,*58
1487217725.75,11174,12.31,74702.5,-5.13,-35.07,-35.29,0,*59
1487217727.01,11175,12.31,74698.8,-5.17,-34.83,-35.07,0,*5D
1487217728.23,11176,12.25,74698.0,-5.13,-35.01,-35.29,0,*5D
1487217729.47,11177,12.31,74698.3,-5.13,-34.95,-35.01,0,*5A
1487217730.71,11178,12.31,74702.8,-5.13,-34.59,-34.95,0,*59
1487217731.94,11179,12.31,74702.0,-5.17,-34.59,-34.83,0,*5B
1487217733.18,11180,12.31,74698.5,-5.13,-34.83,-35.01,0,*55
1487217734.43,11181,12.31,74696.8,-5.13,-34.65,-35.01,0,*5C
1487217735.63,11182,12.31,74704.0,-5.17,-34.89,-35.17,0,*5E
1487217736.87,11183,12.31,74700.5,-5.13,-34.65,-35.01,0,*5E
1487217738.15,11184,12.31,74698.3,-5.11,-34.53,-34.83,0,*55
1487217739.39,11185,12.31,74698.5,-5.17,-34.65,-34.89,0,*5D
1487217740.63,11186,12.31,74702.0,-5.13,-34.53,-34.77,0,*5E
1487217741.87,11187,12.31,74702.0,-5.13,-34.59,-34.95,0,*59
1487217743.08,11188,12.31,74702.0,-5.13,-34.41,-34.77,0,*53
1487217744.29,11189,12.31,74698.5,-5.13,-34.41,-34.77,0,*52
1487217745.52,11190,12.25,74698.3,-5.13,-34.77,-34.95,0,*53
1487217746.77,11191,12.25,74698.3,-5.11,-35.01,-35.29,0,*56
1487217748.01,11192,12.31,74700.5,-5.09,-34.77,-34.95,0,*5A
1487217749.24,11193,12.31,74700.0,-5.11,-35.01,-35.17,0,*59
1487217750.49,11194,12.31,74698.8,-5.11,-35.17,-35.65,0,*5C
1487217751.75,11195,12.31,74698.5,-5.11,-35.29,-35.53,0,*55
1487217753.0,11196,12.31,74700.0,-5.11,-35.17,-35.35,0,*5B
1487217754.23,11197,12.31,74700.8,-5.11,-35.13,-35.29,0,*53
1487217755.49,11198,12.25,74696.5,-5.13,-34.83,-35.07,0,*5A
1487217756.72,11199,12.31,74696.5,-5.17,-35.17,-35.41,0,*51
1487217757.96,11200,12.31,74700.5,-5.13,-34.95,-35.13,0,*5A
1487217759.22,11201,12.31,74706.3,-5.13,-34.65,-34.83,0,*5C
1487217760.46,11202,12.31,74702.0,-5.13,-34.41,-34.65,0,*51
1487217761.69,11203,12.31,74702.3,-5.13,-34.35,-34.59,0,*5C
1487217762.92,11204,12.31,74700.8,-5.11,-34.41,-34.77,0,*56
1487217764.18,11205,12.31,74702.0,-5.11,-34.41,-34.65,0,*54
1487217765.42,11206,12.31,74700.3,-5.13,-34.95,-35.13,0,*5C
1487217766.65,11207,12.25,74698.5,-5.13,-35.13,-35.53,0,*56
1487217767.88,11208,12.31,74702.3,-5.17,-35.17,-35.41,0,*5A
1487217769.11,11209,12.31,74698.5,-5.13,-34.95,-35.17,0,*57
1487217770.32,11210,12.31,74696.8,-5.13,-35.01,-35.17,0,*53
1487217771.58,11211,12.31,74698.8,-5.17,-35.23,-35.53,0,*56
1487217772.78,11212,12.31,74696.8,-5.17,-34.89,-35.17,0,*54
1487217774.05,11213,12.31,74702.3,-5.13,-34.65,-34.95,0,*58
1487217775.31,11214,12.31,74700.0,-5.13,-34.65,-34.83,0,*58
1487217776.58,11215,12.31,74700.5,-5.13,-34.65,-34.95,0,*5E
1487217777.81,11216,12.31,74702.5,-5.13,-34.59,-34.83,0,*55
1487217779.02,11217,12.31,74698.8,-5.17,-34.59,-34.89,0,*5A
1487217780.25,11218,12.31,74702.5,-5.17,-34.89,-35.07,0,*5F
1487217781.47,11219,12.31,74700.0,-5.13,-35.01,-35.29,0,*57
1487217782.68,11220,12.31,74698.8,-5.13,-35.13,-35.29,0,*5E
1487217783.91,11221,12.31,74696.8,-5.17,-35.17,-35.41,0,*51
1487217785.14,11222,12.31,74698.3,-5.17,-35.35,-35.59,0,*5B
1487217786.4,11223,12.31,74700.3,-5.11,-35.29,-35.53,0,*5B
1487217787.63,11224,12.31,74696.8,-5.13,-34.59,-34.83,0,*54
1487217788.89,11225,12.31,74698.3,-5.17,-35.07,-35.35,0,*57
1487217790.1,11226,12.31,74700.0,-5.13,-35.17,-35.47,0,*54
1487217791.35,11227,12.31,74700.0,-5.17,-35.35,-35.53,0,*54
1487217792.58,11228,12.31,74698.8,-5.13,-35.13,-35.35,0,*5B
1487217793.81,11229,12.31,74698.8,-5.17,-35.17,-35.35,0,*5A
1487217795.07,11230,12.31,74700.3,-5.17,-34.65,-35.07,0,*57
1487217796.29,11231,12.31,74702.3,-5.13,-35.01,-35.29,0,*5D
1487217797.55,11232,12.25,74698.0,-5.17,-35.23,-35.41,0,*54
1487217798.77,11233,12.25,74696.5,-5.13,-34.77,-35.01,0,*55
1487217800.0,11234,12.31,74698.0,-5.13,-34.95,-35.17,0,*59
1487217801.24,11235,12.31,74700.8,-5.17,-34.65,-34.89,0,*55
1487217802.48,11236,12.31,74696.8,-5.17,-34.47,-34.65,0,*54
1487217803.71,11237,12.31,74696.3,-5.17,-34.31,-34.59,0,*5B
1487217804.95,11238,12.31,74698.8,-5.13,-34.41,-34.65,0,*58
1487217806.21,11239,12.31,74696.8,-5.11,-34.41,-34.65,0,*5B
1487217807.49,11240,12.25,74696.0,-5.11,-34.35,-34.65,0,*56
1487217808.74,11241,12.25,74698.3,-5.13,-34.95,-35.29,0,*56
1487217809.98,11242,12.25,74694.0,-5.13,-34.83,-35.13,0,*5B
1487217811.21,11243,12.31,74698.5,-5.17,-34.71,-35.07,0,*56
1487217812.45,11244,12.31,74698.8,-5.13,-34.41,-34.65,0,*53
1487217813.66,11245,12.25,74698.3,-5.13,-34.77,-35.13,0,*57
1487217814.87,11246,12.31,74698.0,-5.13,-35.13,-35.47,0,*56
1487217816.09,11247,12.31,74696.5,-5.13,-35.01,-35.01,0,*56
1487217817.29,11248,12.31,74700.5,-5.13,-34.41,-34.59,0,*50
1487217818.53,11249,12.31,74696.8,-5.13,-34.95,-35.17,0,*53
1487217819.75,11250,12.25,74698.0,-5.13,-35.01,-35.29,0,*5A
1487217821.01,11251,12.31,74698.5,-5.13,-34.53,-34.83,0,*5C
1487217822.27,11252,12.31,74698.0,-5.13,-35.07,-35.35,0,*53
1487217823.48,11253,12.31,74696.8,-5.13,-34.77,-35.01,0,*53
1487217824.73,11254,12.31,74696.3,-5.13,-34.59,-34.95,0,*54
1487217825.98,11255,12.31,74698.8,-5.13,-34.65,-34.83,0,*5D
1487217827.2,11256,12.31,74702.3,-5.13,-34.77,-35.01,0,*56
1487217828.43,11257,12.31,74698.5,-5.17,-35.07,-35.17,0,*52
1487217829.7,11258,12.31,74698.8,-5.13,-34.65,-34.95,0,*57
1487217830.93,11259,12.31,74698.8,-5.13,-35.17,-35.35,0,*59
1487217832.13,11260,12.31,74698.5,-5.13,-35.17,-35.47,0,*56
1487217833.35,11261,12.31,74698.5,-5.13,-35.01,-35.17,0,*55
1487217834.6,11262,12.31,74702.8,-5.13,-35.41,-35.53,0,*52
1487217835.86,11263,12.31,74696.3,-5.17,-35.07,-35.35,0,*55
1487217837.09,11264,12.31,74696.8,-5.13,-35.13,-35.35,0,*53
1487217838.32,11265,12.31,74698.8,-5.13,-35.17,-35.35,0,*56
1487217839.57,11266,12.31,74698.5,-5.17,-35.35,-35.53,0,*51
1487217840.83,11267,12.31,74696.8,-5.17,-35.35,-35.41,0,*53
1487217842.08,11268,12.31,74698.3,-5.17,-35.35,-35.53,0,*5F
1487217843.34,11269,12.25,74694.8,-5.17,-35.07,-35.41,0,*5C
1487217844.58,11270,12.31,74698.3,-5.17,-35.01,-35.07,0,*50
1487217845.79,11271,12.31,74698.5,-5.17,-35.01,-35.17,0,*50
1487217847.05,11272,12.25,74696.3,-5.17,-35.23,-35.53,0,*53
1487217848.3,11273,12.25,74692.5,-5.17,-35.23,-35.53,0,*52
1487217849.56,11274,12.31,74696.3,-5.19,-35.13,-35.23,0,*5F
1487217850.82,11275,12.25,74696.5,-5.19,-35.29,-35.41,0,*53
1487217852.05,11276,12.31,74696.0,-5.17,-35.17,-35.35,0,*50
1487217853.31,11277,12.31,74696.8,-5.19,-35.07,-35.29,0,*53
1487217854.58,11278,12.25,74694.8,-5.19,-34.71,-35.07,0,*50
1487217855.84,11279,12.31,74696.3,-5.19,-34.77,-35.07,0,*57
1487217857.07,11280,12.31,74698.0,-5.17,-35.01,-35.23,0,*59
1487217858.3,11281,12.31,74698.3,-5.17,-35.17,-35.35,0,*58
1487217859.56,11282,12.31,74696.8,-5.17,-35.23,-35.41,0,*5F
1487217860.83,11283,12.31,74696.3,-5.19,-35.07,-35.29,0,*58
1487217862.07,11284,12.31,74696.0,-5.19,-34.77,-35.13,0,*50
1487217863.33,11285,12.31,74696.8,-5.19,-34.95,-35.13,0,*5D
1487217864.59,11286,12.25,74696.0,-5.19,-35.13,-35.41,0,*56
1487217865.85,11287,12.31,74698.0,-5.19,-35.23,-35.47,0,*52
1487217867.09,11288,12.31,74700.5,-5.19,-34.77,-35.13,0,*5C
1487217868.36,11289,12.31,74698.3,-5.19,-34.71,-34.95,0,*54
1487217869.61,11290,12.31,74696.5,-5.19,-34.89,-35.07,0,*51
1487217870.87,11291,12.31,74698.8,-5.19,-34.77,-35.07,0,*51
1487217872.14,11292,12.31,74698.5,-5.19,-34.65,-34.77,0,*57
1487217873.4,11293,12.31,74698.0,-5.19,-34.53,-34.89,0,*52
1487217874.66,11294,12.31,74702.0,-5.19,-34.53,-34.89,0,*55
1487217875.87,11295,12.31,74700.0,-5.13,-34.41,-34.77,0,*5C
1487217877.08,11296,12.31,74698.8,-5.17,-34.47,-34.59,0,*51
1487217878.32,11297,12.31,74696.3,-5.13,-34.35,-34.59,0,*51
1487217879.58,11298,12.25,74696.0,-5.13,-34.35,-34.53,0,*54
1487217880.79,11299,12.31,74696.3,-5.13,-34.77,-35.01,0,*55
1487217882.01,11300,12.25,74696.5,-5.13,-35.01,-35.29,0,*5E
1487217883.25,11301,12.31,74696.3,-5.13,-34.65,-35.01,0,*56
1487217884.47,11302,12.31,74698.0,-5.17,-34.71,-35.01,0,*54
1487217885.74,11303,12.31,74696.3,-5.13,-34.53,-34.95,0,*5D
1487217886.97,11304,12.31,74698.0,-5.13,-34.95,-35.17,0,*5B
1487217888.21,11305,12.31,74696.8,-5.13,-34.95,-35.17,0,*5A
1487217889.44,11306,12.25,74692.8,-5.17,-34.65,-34.89,0,*54
1487217890.68,11307,12.25,74694.5,-5.13,-34.59,-34.95,0,*53
1487217891.9,11308,12.25,74694.3,-5.13,-35.01,-35.13,0,*5F
1487217893.14,11309,12.31,74698.3,-5.17,-34.83,-35.01,0,*52
1487217894.4,11310,12.25,74694.0,-5.13,-34.65,-34.95,0,*5A
1487217895.63,11311,12.31,74696.0,-5.11,-34.41,-34.59,0,*5F
1487217896.9,11312,12.25,74694.5,-5.13,-34.53,-34.95,0,*5D
1487217898.11,11313,12.31,74696.3,-5.13,-34.77,-35.01,0,*56
1487217899.35,11314,12.25,74694.5,-5.13,-34.41,-34.53,0,*52
1487217900.55,11315,12.31,74696.0,-5.13,-34.25,-34.41,0,*52
1487217901.8,11316,12.25,74692.3,-5.11,-34.25,-34.53,0,*50
1487217903.06,11317,12.25,74694.5,-5.11,-34.59,-34.95,0,*50
1487217904.3,11318,12.25,74694.8,-5.11,-34.59,-34.77,0,*53
1487217905.59,11319,12.25,74694.8,-5.07,-34.31,-34.53,0,*5D
1487217906.84,11320,12.31,74698.3,-5.11,-34.25,-34.53,0,*55
1487217908.1,11321,12.31,74698.5,-5.09,-34.31,-34.53,0,*58
1487217909.32,11322,12.31,74696.3,-5.09,-34.47,-34.71,0,*5A
1487217910.54,11323,12.31,74700.0,-5.11,-34.41,-34.59,0,*5E
1487217911.78,11324,12.25,74694.8,-5.09,-34.53,-34.71,0,*59
1487217913.03,11325,12.25,74696.0,-5.07,-34.31,-34.41,0,*51
1487217914.28,11326,12.25,74698.5,-5.07,-34.25,-34.31,0,*50
1487217915.54,11327,12.25,74696.5,-5.07,-34.25,-34.53,0,*55
1487217916.77,11328,12.25,74698.3,-5.05,-34.41,-34.65,0,*5F
1487217918.06,11329,12.25,74698.0,-5.07,-34.65,-34.83,0,*52
1487217919.32,11330,12.31,74698.5,-5.07,-35.01,-35.35,0,*55
1487217920.6,11331,12.25,74696.0,-5.07,-34.65,-34.83,0,*5B
1487217921.86,11332,12.31,74698.0,-5.07,-34.41,-34.65,0,*56
1487217923.07,11333,12.25,74694.5,-5.09,-34.77,-34.89,0,*5E
1487217924.3,11334,12.25,74694.8,-5.09,-35.13,-35.41,0,*5F
1487217925.51,11335,12.25,74694.3,-5.09,-34.47,-34.71,0,*5C
1487217926.74,11336,12.31,74696.5,-5.07,-34.89,-35.01,0,*55
1487217927.98,11337,12.25,74694.5,-5.09,-34.77,-35.07,0,*5D
1487217929.21,11338,12.25,74696.5,-5.09,-35.13,-35.41,0,*53
1487217930.45,11339,12.31,74696.8,-5.09,-35.23,-35.29,0,*5F
1487217931.7,11340,12.31,74698.3,-5.09,-35.07,-35.23,0,*5D
1487217932.94,11341,12.25,74696.5,-5.09,-35.13,-35.41,0,*5D
1487217934.19,11342,12.31,74696.8,-5.09,-35.07,-35.23,0,*5F
1487217935.41,11343,12.25,74698.5,-5.09,-34.77,-35.01,0,*58
1487217936.65,11344,12.31,74698.5,-5.09,-34.71,-34.95,0,*55
1487217937.89,11345,12.31,74698.3,-5.11,-34.77,-35.01,0,*57
1487217939.13,11346,12.31,74696.5,-5.09,-34.71,-34.95,0,*57
1487217940.34,11347,12.25,74694.0,-5.09,-34.59,-34.89,0,*51
1487217941.58,11348,12.31,74698.8,-5.09,-34.53,-34.89,0,*54
1487217942.81,11349,12.31,74698.0,-5.09,-34.77,-35.07,0,*54
1487217944.07,11350,12.31,74698.5,-5.11,-34.59,-34.83,0,*54
1487217945.34,11351,12.25,74694.8,-5.07,-34.47,-34.65,0,*55
1487217946.6,11352,12.25,74696.3,-5.09,-34.53,-34.95,0,*52
1487217947.87,11353,12.25,74694.0,-5.09,-34.53,-34.95,0,*53
1487217949.16,11354,12.31,74698.5,-5.07,-34.31,-34.65,0,*51
1487217950.39,11355,12.25,74694.3,-5.07,-34.47,-34.71,0,*54
1487217951.65,11356,12.25,74692.3,-5.07,-34.53,-34.89,0,*55
1487217952.89,11357,12.25,74698.0,-5.07,-34.47,-34.71,0,*56
1487217954.15,11358,12.31,74698.3,-5.07,-34.41,-34.65,0,*5A
1487217955.39,11359,12.25,74692.0,-5.07,-34.71,-35.01,0,*5B
1487217956.63,11360,12.31,74698.8,-5.07,-34.47,-34.71,0,*52
1487217957.86,11361,12.31,74696.3,-5.07,-34.47,-34.71,0,*53
1487217959.12,11362,12.25,74692.8,-5.07,-34.53,-34.71,0,*55
1487217960.39,11363,12.25,74694.5,-5.07,-34.65,-35.01,0,*57
1487217961.62,11364,12.31,74698.5,-5.07,-35.01,-35.17,0,*54
1487217962.88,11365,12.31,74698.5,-5.07,-35.01,-35.23,0,*52
1487217964.12,11366,12.31,74698.0,-5.05,-34.65,-34.89,0,*51
1487217965.38,11367,12.31,74696.3,-5.07,-34.65,-34.89,0,*52
1487217966.64,11368,12.25,74694.8,-5.07,-34.41,-34.65,0,*59
1487217967.86,11369,12.31,74696.3,-5.07,-34.13,-34.41,0,*59
1487217969.11,11370,12.25,74692.0,-5.07,-34.71,-35.01,0,*50
1487217970.35,11371,12.25,74694.8,-5.05,-34.71,-35.07,0,*55
1487217971.6,11372,12.31,74694.8,-5.07,-34.83,-34.89,0,*5E
1487217972.86,11373,12.31,74698.0,-5.07,-34.71,-34.83,0,*58
1487217974.12,11374,12.25,74694.5,-5.05,-35.23,-35.35,0,*57
1487217975.36,11375,12.25,74694.8,-5.09,-35.23,-35.29,0,*57
1487217976.58,11376,12.25,74692.0,-5.07,-34.89,-35.17,0,*56
1487217977.84,11377,12.25,74694.0,-5.07,-35.01,-35.35,0,*56
1487217979.08,11378,12.25,74696.5,-5.09,-34.77,-34.95,0,*5C
1487217980.32,11379,12.25,74696.5,-5.09,-34.53,-34.77,0,*57
1487217981.58,11380,12.25,74696.0,-5.09,-34.95,-35.07,0,*5D
1487217982.82,11381,12.25,74694.5,-5.09,-34.95,-35.29,0,*50
1487217984.06,11382,12.31,74698.0,-5.09,-35.29,-35.53,0,*58
1487217985.3,11383,12.25,74696.3,-5.09,-34.71,-34.95,0,*5E
1487217986.56,11384,12.25,74692.8,-5.09,-35.07,-35.23,0,*55
1487217987.8,11385,12.31,74698.5,-5.09,-34.77,-34.95,0,*5E
1487217989.03,11386,12.31,74694.0,-5.09,-34.53,-34.89,0,*56
1487217990.27,11387,12.31,74696.8,-5.09,-35.07,-35.13,0,*55
1487217991.51,11388,12.25,74694.0,-5.09,-34.71,-34.95,0,*55
1487217992.73,11389,12.31,74698.0,-5.09,-34.77,-35.13,0,*5D
1487217993.96,11390,12.25,74692.5,-5.11,-35.13,-35.29,0,*56
1487217995.22,11391,12.31,74698.3,-5.09,-34.95,-35.23,0,*5B
1487217996.42,11392,12.31,74696.8,-5.09,-34.89,-35.13,0,*56
1487217997.71,11393,12.25,74692.8,-5.11,-34.65,-34.95,0,*53
1487217998.92,11394,12.25,74694.0,-5.09,-34.89,-35.13,0,*50
1487218000.17,11395,12.31,74696.8,-5.11,-35.13,-35.35,0,*5E
1487218001.41,11396,12.25,74692.5,-5.09,-34.53,-34.77,0,*56
1487218002.65,11397,12.25,74694.3,-5.09,-34.53,-34.77,0,*57
1487218003.89,11398,12.25,74696.3,-5.09,-34.53,-34.77,0,*58
1487218005.12,11399,12.31,74696.0,-5.09,-34.35,-34.71,0,*5F
1487218006.34,11400,12.31,74698.8,-5.09,-34.47,-34.59,0,*57
1487218007.59,11401,12.31,74696.8,-5.07,-34.41,-34.53,0,*54
1487218008.85,11402,12.25,74694.5,-5.07,-34.47,-34.83,0,*5C
1487218010.13,11403,12.31,74698.0,-5.07,-34.31,-34.53,0,*51
1487218011.37,11404,12.25,74694.0,-5.07,-34.47,-34.71,0,*57
1487218012.62,11405,12.25,74694.3,-5.07,-34.89,-35.07,0,*54
1487218013.89,11406,12.31,74698.8,-5.07,-34.83,-35.01,0,*5B
1487218015.14,11407,12.25,74694.8,-5.07,-34.65,-34.89,0,*53
1487218016.37,11408,12.31,74700.0,-5.07,-34.89,-35.17,0,*58
1487218017.65,11409,12.31,74698.3,-5.07,-34.53,-34.83,0,*52
1487218018.93,11410,12.25,74696.0,-5.07,-34.53,-34.83,0,*5A
1487218020.22,11411,12.25,74694.3,-5.07,-34.65,-34.83,0,*5E
1487218021.45,11412,12.31,74696.5,-5.09,-35.13,-35.41,0,*5C
1487218022.69,11413,12.25,74694.3,-5.09,-35.07,-35.29,0,*56
1487218023.93,11414,12.31,74698.3,-5.09,-34.77,-34.95,0,*51
1487218025.16,11415,12.31,74698.5,-5.09,-34.53,-34.89,0,*5B
1487218026.41,11416,12.25,74696.0,-5.09,-34.95,-35.29,0,*59
1487218027.64,11417,12.25,74696.5,-5.09,-35.23,-35.47,0,*5C
1487218028.87,11418,12.31,74696.3,-5.09,-34.89,-35.07,0,*56
1487218030.11,11419,12.25,74694.8,-5.09,-34.95,-35.29,0,*56
1487218031.34,11420,12.25,74694.8,-5.09,-34.89,-35.07,0,*5D
1487218032.58,11421,12.31,74696.0,-5.09,-34.71,-34.95,0,*51
1487218033.82,11422,12.25,74696.3,-5.09,-34.71,-35.07,0,*58
1487218035.06,11423,12.25,74692.0,-5.09,-34.77,-34.95,0,*55
1487218036.3,11424,12.25,74694.8,-5.09,-34.95,-35.13,0,*51
1487218037.54,11425,12.31,74698.5,-5.09,-34.71,-34.95,0,*55
1487218038.75,11426,12.25,74696.5,-5.09,-34.89,-35.13,0,*5E
1487218039.98,11427,12.31,74698.3,-5.11,-35.01,-35.17,0,*53
1487218041.21,11428,12.25,74692.8,-5.09,-34.89,-35.23,0,*53
1487218042.44,11429,12.25,74696.0,-5.11,-35.13,-35.29,0,*53
1487218043.68,11430,12.31,74698.0,-5.09,-34.59,-34.95,0,*5B
1487218044.94,11431,12.25,74692.8,-5.09,-34.95,-35.23,0,*56
1487218046.18,11432,12.25,74692.8,-5.09,-34.95,-35.13,0,*56
1487218047.42,11433,12.25,74694.8,-5.09,-34.71,-35.07,0,*58
1487218048.68,11434,12.25,74694.0,-5.09,-35.23,-35.41,0,*5B
1487218049.92,11435,12.25,74694.3,-5.11,-35.01,-35.29,0,*5D
1487218051.16,11436,12.31,74696.8,-5.11,-34.77,-35.01,0,*54
1487218052.39,11437,12.25,74696.8,-5.09,-34.71,-35.07,0,*5C
1487218053.63,11438,12.25,74694.3,-5.09,-34.95,-35.17,0,*58
1487218054.87,11439,12.25,74694.8,-5.09,-34.77,-34.95,0,*5E
1487218056.11,11440,12.31,74698.0,-5.09,-34.59,-34.95,0,*5C
1487218057.35,11441,12.25,74696.5,-5.09,-34.95,-35.13,0,*52
1487218058.58,11442,12.25,74698.5,-5.09,-34.89,-35.23,0,*5F
1487218059.78,11443,12.31,74698.3,-5.09,-35.13,-35.47,0,*5E
1487218061.04,11444,12.25,74692.8,-5.11,-34.95,-35.17,0,*5A
1487218062.3,11445,12.25,74692.0,-5.09,-34.83,-35.23,0,*52
1487218063.55,11446,12.25,74696.0,-5.11,-35.35,-35.47,0,*56
1487218064.79,11447,12.25,74696.5,-5.09,-34.95,-35.13,0,*54
1487218066.03,11448,12.31,74698.0,-5.11,-35.13,-35.29,0,*54
1487218067.28,11449,12.25,74694.5,-5.11,-35.13,-35.35,0,*58
1487218068.53,11450,12.31,74698.0,-5.11,-34.83,-35.17,0,*58
1487218069.8,11451,12.25,74698.3,-5.11,-34.83,-35.13,0,*5D
1487218071.05,11452,12.25,74694.3,-5.11,-35.17,-35.35,0,*56
1487218072.28,11453,12.25,74694.8,-5.13,-35.13,-35.35,0,*51
1487218073.48,11454,12.25,74692.0,-5.13,-35.13,-35.17,0,*56
1487218074.71,11455,12.31,74698.0,-5.13,-35.17,-35.35,0,*53
1487218075.93,11456,12.25,74694.8,-5.13,-35.01,-35.29,0,*5A
1487218077.16,11457,12.25,74698.3,-5.13,-35.01,-35.35,0,*56
1487218078.37,11458,12.31,74698.8,-5.13,-35.29,-35.47,0,*56
1487218079.59,11459,12.31,74698.8,-5.13,-34.77,-35.13,0,*5C
1487218080.81,11460,12.25,74694.0,-5.13,-35.01,-35.29,0,*5F
1487218082.04,11461,12.25,74694.0,-5.13,-34.95,-35.13,0,*5B
1487218083.28,11462,12.25,74696.3,-5.17,-34.71,-35.07,0,*53
1487218084.55,11463,12.25,74694.0,-5.17,-34.65,-35.07,0,*57
1487218085.79,11464,12.25,74694.5,-5.13,-34.95,-35.29,0,*57
1487218087.03,11465,12.25,74692.3,-5.13,-34.83,-35.13,0,*58
1487218088.27,11466,12.31,74696.8,-5.13,-34.59,-34.95,0,*53
1487218089.48,11467,12.31,74698.8,-5.13,-34.77,-35.01,0,*52
1487218090.72,11468,12.25,74696.0,-5.13,-34.59,-34.83,0,*5A
1487218091.98,11469,12.25,74694.8,-5.11,-34.95,-35.17,0,*55
1487218093.23,11470,12.25,74692.3,-5.11,-35.17,-35.35,0,*56
1487218094.47,11471,12.31,74696.5,-5.13,-34.83,-35.13,0,*5D
1487218095.67,11472,12.25,74692.3,-5.13,-34.41,-34.77,0,*53